Wind_Speed
16 16 16 16 15 16 16 17 17 17 16 16 16 16 17 16 15 15 16 18 19 19 20 19 19 18 18 19 20 20 20 20 20 20 20 20 21 21 20 21 22 23 23
15 16 15 15 16 16 15 16 15 15 16 16 15 16 17 17 17 16 17 18 18 18 18 18 19 20 20 20 19 18 18 19 19 19 19 20 20 20 20 20 20 21 22
15 15 15 15 15 15 16 16 16 16 16 17 16 16 17 17 18 18 18 18 18 18 18 19 19 20 20 19 18 17 18 19 19 19 20 20 19 19 20 21 21 21 22
13 13 14 16 15 15 15 16 16 16 17 17 17 17 18 17 17 18 18 18 18 18 18 19 19 18 17 17 18 18 18 19 19 19 19 18 19 20 20 21 22 22 23
13 13 14 15 15 16 16 16 16 17 17 17 17 17 17 17 17 17 17 17 18 18 19 18 17 17 17 17 18 18 18 17 17 17 18 19 20 21 21 21 22 23 23
13 14 15 15 14 14 16 17 16 17 17 17 16 15 15 16 16 16 16 16 16 17 17 16 16 16 17 18 18 17 16 16 17 17 18 19 20 21 22 22 23 24 25
13 13 13 13 12 12 14 15 15 16 16 16 16 16 15 15 16 15 14 15 15 15 14 14 15 15 15 16 16 16 16 16 17 18 19 20 20 21 22 23 24 24 25
11 10 9 9 9 10 11 13 14 14 14 14 14 14 15 15 15 15 15 15 14 14 14 15 15 15 15 15 15 16 17 17 18 19 20 20 21 22 23 23 24 25 25
9 9 8 7 8 9 10 11 12 13 14 14 14 13 14 15 15 15 15 14 14 14 14 15 15 14 14 14 15 15 17 18 18 20 21 21 22 23 24 25 25 24 24
8 7 7 7 8 8 9 9 10 11 12 13 13 13 13 13 14 14 13 13 13 13 14 14 13 13 13 14 15 16 17 18 20 21 21 22 23 24 24 24 24 24 24
8 7 7 8 8 9 10 10 10 10 11 11 11 12 12 13 13 13 12 12 12 12 12 13 13 13 13 14 15 16 17 18 19 20 21 22 22 23 22 22 22 23 23
8 7 7 8 9 9 10 9 9 10 10 10 10 11 11 12 13 12 12 13 12 12 13 12 12 12 13 15 15 17 17 18 19 19 19 20 21 21 20 21 21 21 22
8 8 8 9 10 10 10 9 9 10 10 10 10 10 10 11 12 11 11 12 12 12 12 12 12 12 13 14 15 17 17 18 18 19 19 20 20 20 20 21 21 21 21
9 10 10 10 11 11 10 9 10 10 9 9 9 9 10 11 12 12 12 11 11 11 11 12 12 13 13 14 15 16 17 17 18 19 20 21 20 21 21 21 21 22 22
9 10 11 12 11 11 11 10 9 9 9 9 9 10 11 12 12 12 11 11 11 11 12 12 13 13 14 15 16 16 17 18 18 19 20 20 21 21 21 21 21 22 23
10 11 12 11 12 11 10 10 10 10 9 10 10 11 12 13 12 11 10 10 11 12 12 12 12 13 15 15 16 18 18 19 19 19 20 21 21 21 21 22 22 23 24
11 11 11 12 11 11 11 11 12 12 11 11 11 12 12 12 11 11 11 11 12 13 13 13 14 15 16 17 17 18 18 19 19 20 21 20 20 21 21 22 23 23 23
13 14 13 12 12 12 13 13 12 12 12 13 13 13 13 12 12 12 13 13 14 14 14 14 15 16 17 18 18 19 19 19 19 20 21 21 21 21 21 22 23 23 23
15 15 15 15 15 14 14 13 13 13 14 14 14 14 14 14 14 14 14 15 15 15 15 16 17 17 17 18 19 19 18 19 20 20 21 21 21 22 22 22 22 22 23
16 16 16 16 16 15 14 14 14 15 15 15 15 15 15 15 15 16 16 16 16 16 17 17 17 18 19 19 18 18 19 19 20 21 21 22 22 23 22 22 22 23 23
18 17 17 17 15 15 15 15 15 15 16 16 16 16 16 17 16 16 16 17 17 17 18 18 18 19 19 19 19 19 19 19 20 20 21 22 22 22 23 22 22 23 23
18 18 17 18 17 17 16 16 16 16 16 16 16 17 17 17 17 17 17 17 17 18 18 18 18 18 18 18 18 18 19 19 20 20 21 21 21 22 23 22 22 23 23
19 18 18 18 18 17 17 17 16 16 16 16 16 16 16 17 17 16 16 17 17 17 17 17 16 16 17 17 18 18 18 19 19 19 20 20 21 22 23 23 23 23 22
19 19 18 18 19 18 18 17 17 17 16 16 16 16 16 16 15 15 16 16 16 16 16 16 16 16 16 17 18 18 18 18 18 18 19 20 22 23 23 24 24 23 21
19 19 19 20 20 19 18 17 17 17 17 17 16 16 15 15 15 15 15 16 16 16 15 16 16 17 17 17 17 17 17 18 18 19 20 21 22 23 23 23 23 23 21
20 20 20 20 20 19 19 18 18 18 17 16 16 15 15 15 15 15 15 16 16 16 15 16 17 17 17 16 17 17 18 18 19 21 21 21 21 22 23 23 23 22 21
Wind_Direction
283 280 276 274 272 271 270 271 268 266 266 271 272 269 270 274 279 278 277 279 278 278 278 280 280 284 285 286 286 285 286 286 285 285 284 283 282 280 279 275 272 270 267
289 282 277 274 273 272 269 269 266 265 267 272 274 273 273 275 277 282 282 281 280 282 283 281 283 285 285 286 287 284 285 285 285 286 285 283 280 279 278 276 275 273 269
285 282 279 279 277 273 268 264 264 266 267 269 273 273 274 275 278 281 281 284 284 283 282 283 284 286 287 287 287 286 285 285 285 285 285 282 276 277 277 276 275 273 271
288 282 280 280 276 272 266 263 264 266 267 269 272 276 278 279 284 281 279 282 284 284 283 284 283 284 286 287 288 288 287 287 287 288 287 284 280 276 277 278 277 275 274
294 289 284 283 276 269 265 267 265 266 268 271 273 274 278 282 284 284 282 281 283 283 282 283 284 284 286 287 290 290 289 289 289 288 289 288 285 282 280 279 278 278 278
296 291 285 282 278 267 265 267 267 268 269 268 268 271 277 283 286 286 284 284 285 286 284 282 284 285 287 288 290 291 291 289 289 289 290 289 287 284 283 281 280 281 282
290 292 288 283 281 271 265 264 265 266 266 267 267 272 277 283 286 284 284 288 287 285 286 287 285 287 289 290 290 291 294 290 288 288 289 290 289 288 287 286 285 283 282
291 292 291 288 285 279 272 269 267 268 266 267 268 272 275 282 284 283 287 289 289 290 291 290 289 289 291 291 291 292 293 292 290 290 291 291 291 291 291 290 287 285 283
290 294 290 290 289 287 280 273 267 267 266 267 269 272 278 282 285 288 288 288 292 291 290 289 289 287 289 292 295 297 297 296 294 294 294 294 294 295 295 293 291 288 285
287 288 294 296 295 288 283 281 275 274 272 273 273 275 283 287 290 289 289 290 291 292 288 284 287 290 291 297 301 302 302 298 297 297 296 298 297 297 296 294 292 291 289
281 278 291 298 292 286 285 284 285 284 285 283 280 277 282 286 290 291 287 288 289 291 294 291 292 294 296 303 304 302 303 303 303 301 299 299 299 299 298 297 296 295 294
284 279 291 293 291 288 290 291 290 292 292 289 286 285 285 290 292 289 284 283 284 287 295 297 295 296 299 302 304 305 305 306 308 308 306 304 302 300 301 300 300 300 298
293 291 292 294 295 290 289 294 288 289 291 292 290 291 292 295 295 291 288 286 287 290 294 295 297 299 303 305 306 308 308 309 309 311 310 308 305 302 303 303 302 302 301
298 295 293 289 291 291 289 289 288 291 293 292 289 290 293 296 296 293 291 291 291 292 294 295 297 300 304 309 311 310 311 312 312 312 312 310 307 306 307 305 303 301 301
297 296 290 285 289 291 292 290 290 294 301 302 300 297 297 299 298 294 290 291 291 292 294 297 298 300 304 308 310 311 313 313 313 313 313 313 312 310 308 308 306 305 303
297 296 292 294 294 292 293 293 292 292 298 301 300 299 299 299 298 295 293 291 291 294 297 301 303 304 305 306 306 310 313 315 315 314 314 315 313 313 311 310 309 309 308
300 300 294 294 299 293 290 292 293 294 297 297 294 294 296 297 295 294 292 292 293 295 298 301 303 304 305 306 309 310 312 314 315 316 317 319 317 315 313 312 312 312 312
300 301 296 294 294 292 289 287 288 291 293 294 294 295 295 295 293 293 292 293 294 295 297 300 301 302 304 306 308 308 309 312 316 317 318 318 319 317 317 317 316 316 315
297 298 295 292 293 290 287 285 286 289 292 293 293 292 291 292 290 290 291 292 293 295 297 299 302 302 303 305 306 304 311 313 315 316 317 317 317 317 316 317 318 318 318
293 294 290 290 291 287 285 283 286 287 289 290 290 290 290 290 290 289 290 291 293 295 297 299 300 300 302 304 306 309 311 311 313 315 316 317 317 318 318 317 317 319 319
291 289 286 283 285 284 284 283 284 286 287 288 288 290 289 289 288 288 289 291 293 295 296 296 298 300 303 305 307 309 310 311 312 314 315 315 317 319 320 320 318 318 317
287 288 285 283 283 285 287 286 285 285 287 288 288 289 287 287 287 288 289 291 294 296 297 298 299 300 302 304 306 308 310 311 312 314 314 314 316 319 320 321 320 318 316
283 284 282 282 285 285 285 284 283 284 286 287 288 289 289 288 288 288 289 291 294 296 297 299 299 300 301 304 306 308 311 313 314 314 315 316 318 320 320 320 321 320 317
279 280 278 279 282 285 284 283 282 284 288 290 290 291 290 289 289 290 291 293 295 296 297 298 300 301 304 306 308 308 310 313 314 316 316 317 318 319 320 322 322 322 319
278 278 277 279 281 281 281 282 282 282 285 287 288 289 291 290 290 292 295 297 297 298 299 299 301 304 306 308 308 307 309 312 312 314 314 316 318 319 319 321 322 321 319
277 275 275 279 280 279 279 279 280 282 284 286 286 286 289 290 290 293 296 299 300 299 299 300 302 305 306 306 308 307 308 310 312 314 316 316 318 319 321 322 322 322 321
Height
5832 5833 5832 5832 5832 5832 5832 5832 5831 5832 5833 5833 5833 5833 5833 5833 5833 5832 5831 5830 5830 5829 5828 5827 5826 5825 5824 5823 5821 5820 5818 5817 5815 5814 5813 5811 5810 5809 5808 5807 5806 5806 5806
5829 5829 5828 5828 5828 5828 5828 5828 5828 5828 5829 5829 5829 5829 5828 5828 5828 5827 5826 5826 5825 5824 5823 5822 5821 5820 5819 5817 5815 5814 5813 5811 5810 5808 5807 5806 5805 5803 5802 5801 5800 5800 5800
5825 5825 5825 5825 5824 5824 5824 5824 5825 5825 5825 5825 5825 5824 5824 5824 5824 5823 5822 5821 5820 5819 5818 5817 5816 5815 5813 5812 5811 5809 5808 5806 5805 5803 5802 5800 5799 5798 5797 5795 5795 5794 5793
5822 5821 5821 5820 5820 5820 5820 5820 5820 5820 5821 5821 5821 5820 5820 5820 5819 5818 5817 5816 5815 5814 5813 5812 5811 5810 5808 5807 5805 5804 5803 5801 5799 5797 5796 5795 5793 5792 5791 5790 5788 5788 5787
5818 5817 5817 5817 5816 5815 5816 5816 5816 5816 5816 5816 5816 5816 5816 5815 5814 5813 5812 5811 5810 5809 5808 5807 5806 5804 5803 5802 5800 5799 5797 5795 5793 5792 5791 5789 5787 5786 5785 5784 5782 5781 5780
5814 5813 5813 5812 5812 5811 5811 5811 5811 5812 5812 5811 5812 5811 5811 5810 5809 5808 5807 5806 5805 5804 5802 5802 5801 5799 5798 5797 5795 5794 5792 5790 5789 5787 5785 5784 5782 5780 5778 5777 5776 5774 5773
5810 5809 5809 5808 5808 5807 5806 5806 5807 5807 5807 5807 5807 5807 5806 5806 5805 5803 5803 5801 5800 5799 5798 5797 5796 5794 5793 5792 5790 5789 5787 5785 5784 5782 5780 5778 5776 5774 5772 5770 5768 5767 5765
5807 5806 5805 5805 5804 5804 5803 5802 5802 5802 5803 5803 5803 5802 5802 5801 5800 5799 5798 5797 5796 5795 5794 5793 5791 5790 5789 5787 5786 5784 5782 5780 5778 5776 5774 5772 5770 5767 5765 5763 5761 5759 5757
5804 5803 5803 5802 5802 5801 5800 5800 5799 5799 5798 5798 5798 5798 5797 5797 5796 5794 5794 5793 5792 5791 5790 5788 5787 5785 5784 5783 5781 5779 5777 5775 5773 5770 5768 5766 5763 5761 5758 5755 5753 5751 5749
5802 5801 5801 5800 5799 5799 5798 5796 5795 5795 5794 5794 5794 5793 5793 5793 5792 5790 5789 5789 5788 5787 5785 5784 5783 5781 5780 5778 5776 5775 5772 5770 5767 5765 5762 5760 5757 5754 5751 5748 5745 5743 5741
5800 5799 5798 5798 5797 5796 5795 5793 5792 5791 5791 5790 5790 5789 5789 5789 5787 5786 5785 5785 5784 5782 5781 5780 5778 5777 5776 5774 5772 5770 5768 5765 5762 5759 5757 5754 5751 5747 5744 5741 5738 5736 5733
5797 5796 5795 5795 5794 5793 5792 5791 5789 5789 5788 5787 5786 5786 5785 5785 5784 5782 5781 5780 5779 5778 5777 5775 5774 5772 5771 5769 5767 5765 5763 5760 5757 5754 5751 5748 5745 5742 5739 5735 5732 5730 5727
5794 5793 5792 5792 5791 5790 5789 5788 5787 5787 5785 5784 5783 5782 5782 5781 5780 5778 5777 5776 5775 5774 5773 5772 5770 5768 5767 5765 5763 5760 5758 5755 5752 5749 5746 5743 5739 5736 5733 5730 5727 5724 5721
5792 5791 5790 5789 5789 5788 5787 5786 5785 5784 5782 5781 5780 5779 5779 5778 5776 5775 5774 5772 5771 5770 5769 5768 5766 5764 5763 5760 5758 5756 5753 5751 5747 5744 5741 5737 5734 5731 5728 5724 5721 5718 5715
5790 5789 5788 5787 5786 5785 5784 5783 5782 5781 5779 5778 5777 5776 5775 5774 5773 5771 5770 5769 5768 5767 5765 5764 5762 5760 5758 5756 5754 5752 5749 5746 5743 5739 5736 5733 5729 5726 5722 5719 5715 5712 5708
5787 5786 5785 5784 5783 5782 5781 5780 5778 5777 5776 5776 5775 5774 5773 5771 5769 5768 5767 5766 5764 5763 5762 5760 5758 5756 5754 5752 5750 5747 5745 5741 5738 5735 5732 5728 5724 5720 5717 5713 5709 5706 5702
5785 5784 5782 5781 5779 5778 5778 5777 5776 5774 5773 5773 5772 5771 5769 5768 5766 5765 5763 5762 5761 5760 5758 5756 5754 5752 5750 5748 5745 5743 5740 5737 5733 5730 5727 5723 5719 5715 5711 5707 5703 5699 5695
5782 5781 5779 5778 5777 5776 5774 5773 5772 5771 5770 5769 5768 5767 5766 5764 5763 5761 5760 5759 5757 5756 5754 5752 5750 5748 5746 5743 5741 5738 5735 5732 5728 5725 5722 5718 5714 5710 5706 5702 5698 5694 5690
5778 5777 5775 5774 5773 5772 5770 5769 5769 5768 5767 5765 5764 5763 5762 5760 5759 5757 5756 5754 5753 5751 5749 5747 5745 5743 5741 5739 5736 5733 5730 5727 5723 5720 5717 5713 5710 5706 5701 5697 5693 5689 5685
5773 5772 5770 5770 5769 5768 5766 5766 5764 5763 5762 5761 5760 5758 5757 5755 5754 5752 5751 5750 5748 5746 5744 5742 5741 5739 5737 5734 5731 5728 5725 5722 5719 5715 5712 5708 5704 5700 5696 5692 5688 5684 5679
5768 5767 5766 5765 5764 5763 5762 5761 5760 5759 5757 5756 5755 5754 5752 5750 5749 5747 5746 5744 5743 5741 5739 5737 5736 5733 5731 5728 5726 5723 5720 5717 5714 5710 5707 5703 5699 5695 5691 5686 5683 5679 5675
5763 5762 5761 5760 5760 5758 5757 5756 5755 5754 5752 5751 5750 5748 5747 5745 5744 5742 5741 5739 5737 5735 5734 5732 5730 5727 5725 5723 5720 5718 5715 5712 5708 5705 5701 5698 5694 5690 5686 5682 5678 5673 5669
5757 5756 5755 5754 5754 5753 5752 5751 5750 5748 5747 5745 5744 5743 5742 5740 5738 5737 5735 5733 5732 5730 5728 5727 5724 5722 5720 5717 5715 5712 5709 5706 5703 5700 5696 5693 5689 5685 5681 5677 5672 5668 5664
5751 5751 5749 5749 5748 5747 5746 5745 5744 5743 5742 5740 5739 5737 5736 5735 5733 5731 5730 5728 5726 5725 5723 5721 5719 5717 5714 5712 5710 5707 5704 5701 5698 5695 5692 5688 5685 5681 5677 5672 5667 5663 5659
5745 5744 5744 5743 5742 5741 5740 5740 5739 5738 5737 5735 5734 5732 5731 5730 5728 5726 5725 5723 5721 5720 5718 5716 5714 5712 5710 5707 5705 5702 5699 5697 5694 5691 5687 5684 5680 5676 5672 5667 5663 5659 5655
5738 5738 5737 5736 5736 5735 5735 5734 5733 5732 5731 5730 5729 5728 5726 5725 5723 5722 5720 5718 5717 5715 5713 5711 5709 5707 5705 5702 5700 5697 5694 5692 5689 5686 5682 5679 5675 5671 5667 5663 5658 5654 5650